[[{"header":{"parameterUnit":"m.s-1","parameterCategory":1,"la1":30.2991,"la2":30.254,"lo1":-89.0895,"lo2":-89.0444,"dy":0.0017,"dx":0.0017,"nx":28,"ny":28,"refTime":"2023-09-01T03:00:00:Z","depth":0,"parameterNumber":2,"parameterNumberName":"U-component_of_WINDS"},"data":[0,0,0,0,0,0,0,0,0,0,0,0,0,0,0,0,0,0,0,0,0,0,0,0,0,0,0,0,0,0,0,0,0,0,0,0,0,0,0,0,0,0,0,0,0,0,0,0,0,0,0,0,0,0,0,0,0,0,-1.9206,-1.9206,0,-1.9178,-1.9177,-1.9177,-1.9067,-1.9065,-1.9062,-1.906,-1.9034,-1.9035,-1.9037,0,0,0,0,0,0,0,0,0,0,0,0,0,-1.9167,-1.9169,-1.9206,-1.9206,-1.9205,-1.9178,-1.9177,-1.9177,-1.9068,-1.9065,-1.9061,-1.9059,-1.9033,-1.9035,-1.9037,0,0,0,0,0,0,0,0,0,0,0,0,0,-1.9166,-1.9169,-1.9206,-1.9147,-1.9142,-1.9178,-1.9177,-1.9177,-1.9068,-1.9064,-1.9061,-1.9057,-1.9032,-1.9035,-1.9037,-1.9129,0,0,-1.9045,-1.9046,0,0,0,0,0,0,0,0,-1.9167,-1.9168,-1.9156,-1.9152,-1.9145,-1.9122,-1.9154,-1.9161,-1.9069,-1.9096,-1.906,-1.9055,-1.9066,-1.9066,-1.9069,-1.9127,-1.9126,-1.9045,-1.9047,-1.9048,-1.9048,0,0,0,0,0,0,0,-1.9167,-1.9168,-1.9195,-1.9156,-1.915,-1.9123,-1.9119,-1.9155,-1.9103,-1.9094,-1.9086,-1.9084,-1.9063,-1.9067,-1.9067,-1.9126,-1.9045,-1.9047,-1.9049,-1.905,-1.9256,-1.9259,0,0,0,0,0,0,-1.9175,-1.9169,-1.9196,-1.9194,-1.9147,-1.9127,-1.9122,-1.9133,-1.9102,-1.9094,-1.9087,-1.9079,-1.9064,-1.9065,-1.9066,-1.9169,-1.9048,-1.905,-1.9051,-1.9252,-1.9257,-1.9261,0,0,0,0,0,0,-1.9174,-1.9178,-1.9197,-1.9179,-1.918,-1.9131,-1.9145,-1.9135,-1.9139,-1.9097,-1.9088,-1.9101,-1.9061,-1.9063,-1.9113,-1.9167,-1.9051,-1.9053,-1.9247,-1.9253,-1.9259,-1.9378,0,0,0,0,0,0,-1.9174,-1.9179,-1.9213,-1.9181,-1.9181,-1.9245,-1.9149,-1.9137,-1.9143,-1.9132,-1.9107,-1.91,-1.9058,-1.911,-1.9116,-1.9168,-1.9055,-1.9242,-1.925,-1.9257,-1.9369,-1.9387,-1.9403,0,0,0,0,0,-1.9173,-1.9249,-1.9215,-1.9219,-1.9222,-1.9248,-1.9248,-1.9198,-1.9148,-1.9182,-1.9155,-1.91,-1.916,-1.9116,-1.9122,-1.9176,-1.9238,-1.9248,-1.9256,-1.9361,-1.9384,-1.9403,0,0,0,0,0,0,-1.929,-1.9243,-1.9206,-1.9273,-1.9265,-1.9229,-1.927,-1.9224,-1.923,-1.922,-1.9159,-1.9154,-1.9213,-1.92,-1.9151,-1.9262,-1.919,-1.9201,-1.9268,-1.9289,-1.9306,-1.9308,-1.9057,0,0,0,0,0,-1.9323,-1.9347,-1.9305,-1.9369,-1.9367,-1.932,-1.9329,-1.9291,-1.928,-1.9277,-1.9253,-1.9246,-1.9262,-1.9275,-1.9288,-1.9367,-1.9359,-1.9406,-1.9423,-1.9438,-1.9447,-1.9486,-1.9506,-1.929,-1.929,-1.929,0,0,-1.9393,-1.937,-1.9389,-1.9392,-1.9381,-1.9407,-1.9318,-1.935,-1.9368,-1.9282,-1.9327,-1.931,-1.9298,-1.9362,-1.9389,-1.9353,-1.9505,-1.9449,-1.9461,-1.9462,-1.9497,-1.9518,-1.9536,-1.9296,-1.9295,-1.9294,0,0,-1.9533,-1.9519,-1.9569,-1.956,-1.9544,-1.9511,-1.9524,-1.9495,-1.9479,-1.9524,-1.9459,-1.9481,-1.9512,-1.9505,-1.9505,-1.9641,-1.9591,-1.9647,-1.9736,-1.9774,-1.9791,-1.9806,-1.9853,-1.9871,-1.9657,-1.9657,-1.9658,0,-1.9622,-1.9658,-1.9602,-1.9637,-1.9639,-1.9561,-1.9611,-1.9605,-1.9596,-1.9599,-1.9558,-1.9593,-1.958,-1.964,-1.9673,-1.9677,-1.9689,-1.965,-1.9793,-1.9807,-1.982,-1.9865,-1.9883,-1.9664,-1.9663,-1.9663,-1.9662,0,-1.9767,-1.9793,-1.9836,-1.9826,-1.9834,-1.9877,-1.9828,-1.9842,-1.9803,-1.9776,-1.9821,-1.9802,-1.9809,-1.9821,-1.9784,-1.9876,-1.9853,-1.9804,-1.9731,-1.9849,-1.9889,-1.9906,-1.9674,-1.9672,-1.967,-1.9668,0,0,-1.9981,-1.9938,-1.9955,-1.9948,-1.9924,-1.9944,-1.9983,-1.9988,-2.0001,-1.9997,-2.0028,-2.0055,-2.0008,-2.0009,-1.9971,-2.0005,-2.0112,-1.995,-1.9949,-1.998,-2.0211,-2.0248,-2.0268,-2.0079,-2.0082,-2.0084,-2.0211,0,-2.0113,-2.0176,-2.0126,-2.0199,-2.0222,-2.0147,-2.018,-2.017,-2.0145,-2.0161,-2.0133,-2.0153,-2.009,-2.009,-2.012,-2.0092,-2.0157,-2.0083,-2.0107,-2.0108,-2.0111,-2.0289,-2.0329,-2.045,-2.0227,-2.023,-2.0231,0,-2.0276,-2.0277,-2.0352,-2.032,-2.0328,-2.036,-2.036,-2.0376,-2.0362,-2.0341,-2.0341,-2.0293,-2.033,-2.0258,-2.0307,-2.0257,-2.0264,-2.0252,-2.0256,-2.0255,-2.0177,-2.0293,-2.0487,-2.0505,-2.0256,-2.0254,-2.0252,0,-2.0423,-2.0443,-2.0489,-2.0487,-2.0452,-2.0476,-2.0463,-2.0445,-2.0451,-2.0451,-2.0454,-2.046,-2.0463,-2.0468,-2.0423,-2.0375,-2.0477,-2.0403,-2.0461,-2.0462,-2.0485,-2.0484,-2.0683,-2.0492,-2.0492,-2.0491,-2.0491,0,-2.0575,-2.0624,-2.0554,-2.0583,-2.0635,-2.0577,-2.063,-2.0609,-2.0593,-2.0616,-2.0553,-2.0576,-2.0515,-2.0532,-2.0497,-2.0542,-2.0545,-2.0529,-2.0519,-2.0534,-2.0536,-2.0537,-2.0527,-2.0496,-2.0495,-2.0494,-2.0493,0,-2.0748,-2.0704,-2.0749,-2.0712,-2.0704,-2.0743,-2.0712,-2.0737,-2.0707,-2.0737,-2.0741,-2.0695,-2.0711,-2.0667,-2.0677,-2.0653,-2.0718,-2.0695,-2.0722,-2.0715,-2.0775,-2.077,-2.098,-2.1004,-2.08,-2.0802,-2.0804,0,-2.0848,-2.0883,-2.0849,-2.0859,-2.0849,-2.0867,-2.0872,-2.0816,-2.0824,-2.081,-2.0836,-2.0847,-2.0853,-2.0884,-2.0851,-2.0858,-2.0834,-2.0908,-2.0835,-2.0849,-2.0834,-2.0832,-2.0834,-2.0923,-2.0925,-2.0927,-2.0929,0,-2.1029,-2.1005,-2.1014,-2.1015,-2.1023,-2.1022,-2.1016,-2.1028,-2.0969,-2.0981,-2.0996,-2.1001,-2.101,-2.1022,-2.1022,-2.1008,-2.0959,-2.0952,-2.0965,-2.0981,-2.0994,-2.0986,-2.0762,-2.0947,-2.0945,-2.0944,-2.0943,-2.0942,-2.1167,-2.1194,-2.1173,-2.1185,-2.1175,-2.1171,-2.1192,-2.1164,-2.1175,-2.1177,-2.1144,-2.1166,-2.115,-2.1144,-2.1136,-2.1153,-2.1119,-2.114,-2.1144,-2.115,-2.1159,-2.0993,-2.1153,-2.1152,-2.1152,-2.1151,-2.1151,0,-2.1344,-2.1326,-2.1338,-2.1331,-2.134,-2.1291,-2.1282,-2.1294,-2.1313,-2.1302,-2.1308,-2.1325,-2.1336,-2.1304,-2.131,-2.1329,-2.1306,-2.1332,-2.133,-2.1327,-2.119,-2.1177,-2.1351,-2.135,-2.135,-2.135,-2.135,-2.135,-2.1436,-2.1478,-2.1452,-2.1488,-2.147,-2.149,-2.1489,-2.1485,-2.1475,-2.1496,-2.1504,-2.1483,-2.1463,-2.1466,-2.1474,-2.1464,-2.1468,-2.1502,-2.1485,-2.1357,-2.1337,-2.1319,-2.1306,-2.1504,-2.1504,-2.162,-2.1621,-2.1622]},{"header":{"parameterUnit":"m.s-1","parameterCategory":1,"la1":30.2991,"la2":30.254,"lo1":-89.0895,"lo2":-89.0444,"dy":0.0017,"dx":0.0017,"nx":28,"ny":28,"refTime":"2023-09-01T03:00:00:Z","depth":0,"parameterNumber":3,"parameterNumberName":"V-component_of_WINDS"},"data":[0,0,0,0,0,0,0,0,0,0,0,0,0,0,0,0,0,0,0,0,0,0,0,0,0,0,0,0,0,0,0,0,0,0,0,0,0,0,0,0,0,0,0,0,0,0,0,0,0,0,0,0,0,0,0,0,0,0,-2.5152,-2.5152,0,-2.5217,-2.5218,-2.5219,-2.5228,-2.5227,-2.5227,-2.5226,-2.5289,-2.5291,-2.5293,0,0,0,0,0,0,0,0,0,0,0,0,0,-2.5028,-2.503,-2.5151,-2.5152,-2.5153,-2.5217,-2.5218,-2.5219,-2.5228,-2.5227,-2.5226,-2.5226,-2.5288,-2.529,-2.5293,0,0,0,0,0,0,0,0,0,0,0,0,0,-2.5086,-2.5031,-2.5151,-2.5165,-2.5167,-2.5217,-2.5218,-2.5219,-2.5228,-2.5227,-2.5226,-2.5225,-2.5287,-2.529,-2.5293,-2.5332,0,0,-2.5304,-2.5305,0,0,0,0,0,0,0,0,-2.5083,-2.5091,-2.5163,-2.5165,-2.5167,-2.5214,-2.5198,-2.5257,-2.5228,-2.5205,-2.5226,-2.5225,-2.5264,-2.5269,-2.5283,-2.5335,-2.5338,-2.5304,-2.5306,-2.5307,-2.5308,0,0,0,0,0,0,0,-2.5079,-2.5088,-2.5177,-2.5164,-2.5166,-2.5167,-2.5174,-2.5209,-2.5238,-2.5207,-2.5208,-2.5216,-2.5265,-2.528,-2.5285,-2.5339,-2.5304,-2.5307,-2.5309,-2.531,-2.5423,-2.5424,0,0,0,0,0,0,-2.5073,-2.5085,-2.5175,-2.5179,-2.5122,-2.517,-2.5178,-2.5199,-2.5238,-2.5243,-2.5216,-2.5216,-2.5275,-2.5281,-2.5287,-2.5334,-2.5307,-2.5311,-2.5312,-2.5422,-2.5423,-2.5424,0,0,0,0,0,0,-2.5071,-2.5081,-2.5173,-2.5132,-2.5144,-2.5173,-2.5197,-2.5201,-2.5216,-2.5245,-2.525,-2.5227,-2.5274,-2.5282,-2.5321,-2.5336,-2.5312,-2.5315,-2.5421,-2.5423,-2.5424,-2.5428,0,0,0,0,0,0,-2.5067,-2.508,-2.5097,-2.5133,-2.5146,-2.5207,-2.5198,-2.5203,-2.5223,-2.5223,-2.5256,-2.5261,-2.5274,-2.5316,-2.5324,-2.534,-2.5318,-2.542,-2.5422,-2.5423,-2.5426,-2.5429,-2.5431,0,0,0,0,0,-2.5063,-2.5094,-2.5097,-2.5108,-2.5168,-2.5208,-2.5215,-2.5231,-2.5224,-2.5239,-2.5258,-2.526,-2.5333,-2.532,-2.5329,-2.5346,-2.5419,-2.5421,-2.5423,-2.5425,-2.5429,-2.5431,0,0,0,0,0,0,-2.5058,-2.5099,-2.5103,-2.5148,-2.5175,-2.5209,-2.523,-2.5235,-2.5262,-2.5261,-2.5278,-2.5286,-2.5323,-2.5338,-2.5323,-2.5385,-2.5375,-2.5379,-2.5373,-2.5377,-2.5379,-2.5374,-2.532,0,0,0,0,0,-2.5062,-2.5093,-2.5127,-2.5163,-2.5177,-2.5201,-2.5219,-2.5229,-2.5256,-2.5267,-2.5288,-2.5313,-2.5342,-2.536,-2.5388,-2.5429,-2.5435,-2.5445,-2.5448,-2.545,-2.5453,-2.5474,-2.5478,-2.5432,-2.5432,-2.5432,0,0,-2.5071,-2.5098,-2.5116,-2.5163,-2.5185,-2.5214,-2.521,-2.5242,-2.5264,-2.5271,-2.5309,-2.5325,-2.5354,-2.5394,-2.5412,-2.5408,-2.5467,-2.5453,-2.5454,-2.5456,-2.5476,-2.5481,-2.5484,-2.5433,-2.5433,-2.5433,0,0,-2.5103,-2.5127,-2.5159,-2.5181,-2.5214,-2.523,-2.5237,-2.5272,-2.5283,-2.5321,-2.5327,-2.5352,-2.5402,-2.5422,-2.5438,-2.5476,-2.5478,-2.5484,-2.5498,-2.5518,-2.5521,-2.5524,-2.5536,-2.5541,-2.5488,-2.5488,-2.5488,0,-2.5109,-2.5156,-2.5174,-2.5206,-2.5226,-2.5235,-2.5267,-2.5286,-2.5326,-2.5339,-2.5334,-2.5395,-2.5415,-2.5459,-2.5468,-2.5481,-2.5489,-2.548,-2.552,-2.5523,-2.5526,-2.5538,-2.5542,-2.5488,-2.5488,-2.5488,-2.5488,0,-2.5161,-2.5194,-2.5215,-2.5255,-2.5277,-2.5308,-2.5329,-2.5349,-2.5357,-2.5372,-2.541,-2.5435,-2.5467,-2.5478,-2.5486,-2.5522,-2.5518,-2.5517,-2.5507,-2.5531,-2.5542,-2.5547,-2.5489,-2.5489,-2.5488,-2.5488,0,0,-2.5192,-2.5241,-2.5248,-2.5266,-2.5303,-2.5327,-2.5358,-2.5391,-2.5407,-2.5434,-2.5459,-2.55,-2.5498,-2.5517,-2.5526,-2.5544,-2.557,-2.554,-2.5541,-2.5543,-2.561,-2.561,-2.5615,-2.5572,-2.5573,-2.5574,-2.5607,0,-2.5226,-2.5284,-2.53,-2.5347,-2.5376,-2.5385,-2.5412,-2.5436,-2.5451,-2.5476,-2.5492,-2.5521,-2.5517,-2.5528,-2.5546,-2.5563,-2.5584,-2.5561,-2.5594,-2.5595,-2.5585,-2.5621,-2.5622,-2.5652,-2.5611,-2.5612,-2.5613,0,-2.5275,-2.5304,-2.5354,-2.5386,-2.5399,-2.5423,-2.5453,-2.5478,-2.5505,-2.5515,-2.5535,-2.5543,-2.5574,-2.5563,-2.5604,-2.5588,-2.5602,-2.5613,-2.5614,-2.5617,-2.5604,-2.5623,-2.5662,-2.5666,-2.562,-2.5619,-2.5619,0,-2.529,-2.5341,-2.5378,-2.5393,-2.5432,-2.5448,-2.5464,-2.5491,-2.5509,-2.5535,-2.5547,-2.5576,-2.5592,-2.5613,-2.5628,-2.5619,-2.5667,-2.5658,-2.5674,-2.5673,-2.5682,-2.5681,-2.5722,-2.5694,-2.5693,-2.5693,-2.5693,0,-2.5326,-2.5356,-2.5385,-2.5407,-2.5441,-2.5459,-2.549,-2.5507,-2.553,-2.5554,-2.5564,-2.5586,-2.5605,-2.5629,-2.564,-2.5671,-2.5678,-2.5685,-2.5688,-2.5684,-2.5683,-2.5693,-2.5691,-2.5695,-2.5694,-2.5694,-2.5694,0,-2.5349,-2.537,-2.541,-2.5443,-2.5452,-2.5475,-2.5503,-2.5524,-2.5539,-2.5569,-2.5577,-2.5601,-2.5629,-2.5647,-2.5683,-2.569,-2.5724,-2.5726,-2.5715,-2.5716,-2.5731,-2.5729,-2.5778,-2.5785,-2.5753,-2.5753,-2.5753,0,-2.537,-2.5393,-2.543,-2.5447,-2.5464,-2.5493,-2.5511,-2.5529,-2.5548,-2.558,-2.5597,-2.5626,-2.5651,-2.5696,-2.5715,-2.5742,-2.5744,-2.576,-2.5748,-2.5743,-2.5742,-2.5741,-2.5742,-2.5761,-2.5761,-2.5762,-2.5762,0,-2.5405,-2.5414,-2.5442,-2.5473,-2.5496,-2.5521,-2.5545,-2.5559,-2.558,-2.5601,-2.5631,-2.565,-2.5687,-2.5715,-2.5744,-2.5759,-2.5763,-2.5765,-2.577,-2.5766,-2.5758,-2.5761,-2.5719,-2.5764,-2.5764,-2.5764,-2.5763,-2.5763,-2.5427,-2.5448,-2.5476,-2.5506,-2.5527,-2.555,-2.5571,-2.5589,-2.5615,-2.5647,-2.5656,-2.5687,-2.5711,-2.5751,-2.5766,-2.5789,-2.5787,-2.5794,-2.5796,-2.5797,-2.5797,-2.5755,-2.5795,-2.5794,-2.5794,-2.5794,-2.5794,0,-2.5461,-2.548,-2.5508,-2.5542,-2.5566,-2.557,-2.5597,-2.5615,-2.5643,-2.5666,-2.5691,-2.5724,-2.5751,-2.5773,-2.58,-2.5815,-2.5817,-2.5821,-2.582,-2.5823,-2.5798,-2.5791,-2.5818,-2.5818,-2.5818,-2.5818,-2.5818,-2.5818,-2.5482,-2.5517,-2.5529,-2.5573,-2.5591,-2.5623,-2.5638,-2.5658,-2.5677,-2.5714,-2.5738,-2.5752,-2.5774,-2.5803,-2.5828,-2.5833,-2.5842,-2.5845,-2.5851,-2.5827,-2.5824,-2.5822,-2.5815,-2.5847,-2.5848,-2.5873,-2.5873,-2.5874]}]]